GEFSMA_500_meanwind_030.txt.gz
Wind_Speed
15 14 14 15 15 14 14 14 15 16 16 17 17 18 19 19 20 21 21 21 21 19 19 19 18 18 17 16 16 16 15 14 14 14 13 14 14 15 15 17 17 18 19
17 16 16 15 15 15 15 15 16 17 18 18 19 20 21 21 21 22 22 23 23 22 21 21 20 19 19 18 17 16 16 15 15 14 14 14 15 15 16 17 18 19 20
19 18 17 17 17 17 17 18 18 19 20 20 22 22 23 23 23 23 23 24 25 25 24 23 22 22 21 20 19 18 17 16 16 15 15 15 16 16 17 17 18 19 20
22 20 19 19 19 19 20 21 21 22 23 23 24 25 26 26 25 25 25 25 26 26 26 26 25 24 24 23 22 20 19 18 18 17 17 17 17 17 18 18 19 20 21
24 23 22 22 21 22 23 24 24 25 25 26 26 27 28 29 28 28 27 27 27 28 28 27 27 27 26 25 24 23 22 21 20 19 19 18 18 18 19 19 20 21 22
28 26 25 24 24 25 26 27 27 28 28 29 30 30 31 32 31 31 30 29 29 29 29 29 29 29 28 27 27 26 24 23 22 21 21 20 20 20 20 20 21 22 23
31 29 28 27 26 27 29 30 30 31 32 33 34 34 33 34 34 34 33 32 31 31 30 30 29 30 30 29 29 28 26 26 25 24 23 22 21 21 21 21 22 22 23
33 30 29 28 28 29 30 31 32 33 34 37 38 38 36 35 37 37 36 34 33 33 32 31 30 30 30 30 30 30 29 28 27 26 25 25 24 23 22 22 23 23 23
35 31 30 29 29 30 30 32 34 35 36 38 40 41 40 37 37 37 38 37 36 35 34 33 32 31 31 32 32 32 31 30 29 28 27 27 26 24 24 23 23 23 23
33 30 28 27 28 29 31 33 35 37 38 39 40 41 42 41 39 36 37 38 37 36 35 35 34 33 32 32 32 33 33 32 31 30 29 29 27 25 24 24 24 23 24
29 28 27 28 29 31 32 34 37 38 39 40 40 40 40 40 39 38 35 36 37 37 36 35 34 34 34 34 34 35 34 34 33 32 31 29 28 26 25 24 24 23 24
29 29 29 31 32 34 35 37 38 39 40 40 39 39 39 38 38 37 35 33 34 36 36 35 34 35 36 36 36 37 36 35 34 33 32 31 29 27 25 25 24 24 24
30 31 33 34 35 37 38 38 39 39 38 38 37 36 36 35 35 34 34 33 33 34 36 36 35 35 36 37 37 38 38 38 36 35 34 32 30 28 26 26 25 24 25
34 35 37 38 38 39 39 39 38 37 35 35 34 33 32 32 31 31 32 32 32 33 35 36 37 36 36 37 38 38 38 38 38 37 35 33 30 29 27 27 26 25 25
37 37 38 39 39 39 38 37 35 34 32 31 30 30 29 29 29 29 29 30 30 31 32 34 35 36 37 37 37 38 39 37 37 36 35 33 30 29 28 27 26 26 25
39 39 39 39 38 37 36 34 32 31 30 29 29 28 27 27 27 27 27 28 29 29 30 32 33 33 34 35 35 35 36 35 35 35 34 32 30 28 28 27 26 26 25
39 38 37 36 35 34 33 32 31 30 29 29 28 28 28 27 27 27 26 27 26 27 28 30 31 32 32 31 32 32 31 31 32 32 33 32 30 28 27 26 25 25 25
36 35 34 34 33 32 32 31 30 30 29 29 29 29 29 29 28 28 27 27 26 26 26 26 27 27 27 28 29 29 28 28 29 30 29 29 28 26 25 25 24 24 24
33 33 32 32 31 31 31 30 30 30 30 30 30 30 31 31 30 30 29 29 28 27 25 24 24 24 23 24 25 25 25 25 25 26 26 26 26 25 24 24 23 23 23
30 30 31 30 30 30 30 30 30 30 30 31 31 31 32 32 32 32 32 31 31 30 28 26 25 24 23 23 22 23 23 23 24 24 24 24 25 25 24 23 22 22 22
28 29 29 29 29 30 30 30 30 31 31 32 32 33 33 34 34 34 34 34 34 33 32 30 29 28 26 25 24 24 24 24 24 24 23 24 24 24 24 23 22 22 22
28 29 29 29 29 29 30 30 31 31 32 32 33 33 33 34 35 35 35 36 36 36 36 34 33 31 30 29 28 27 26 25 25 24 24 24 25 24 24 24 24 23 22
28 28 28 28 28 28 29 29 30 31 31 32 32 33 33 34 34 35 35 36 37 37 38 38 37 36 34 33 32 31 30 28 28 27 27 26 27 26 26 26 25 25 24
26 26 26 26 26 26 27 27 28 29 29 29 30 30 31 32 33 34 34 35 36 37 38 39 39 39 38 37 35 34 33 31 31 30 29 29 29 29 29 28 28 26 25
23 22 22 22 22 22 23 24 24 24 24 25 26 28 29 30 31 32 33 33 34 35 36 38 39 40 40 40 39 38 37 35 34 34 33 31 31 31 30 29 29 28 27
18 18 18 18 19 19 20 20 21 22 23 24 25 26 28 29 30 30 31 32 32 33 34 35 36 38 39 40 40 40 40 39 39 38 36 34 33 32 31 31 30 30 29

GEFSMA_500_meanwind_036.txt.gz
Wind_Speed
20 20 21 21 21 21 21 20 19 19 18 17 16 16 16 16 16 16 16 16 17 18 18 19 20 20 20 19 18 18 17 17 16 15 15 15 15 15 15 15 16 16 16
24 24 24 24 24 23 23 23 22 21 21 20 19 19 19 20 20 19 19 19 19 20 20 21 21 22 21 21 21 20 20 19 19 17 16 16 15 15 16 16 16 16 17
29 28 28 28 27 26 26 26 25 24 24 23 22 22 23 23 24 23 23 22 22 22 22 22 22 23 23 23 23 23 23 22 21 20 19 18 17 16 16 17 17 17 17
34 33 32 32 31 30 30 29 28 28 27 26 25 25 26 26 27 27 27 26 26 25 25 25 25 24 24 25 25 25 25 25 24 23 22 21 19 19 18 18 18 18 18
38 38 37 37 36 34 34 33 31 30 30 29 28 28 28 29 30 31 31 31 30 29 28 28 27 27 26 26 27 27 27 27 27 26 25 24 23 21 20 20 19 20 20
42 43 42 42 40 39 37 36 35 33 32 32 31 31 31 32 33 34 34 34 34 33 32 31 30 29 28 28 28 29 29 29 30 29 28 27 26 24 23 22 21 21 21
44 45 45 45 45 43 42 40 38 36 35 34 33 33 33 34 34 36 37 37 37 36 35 34 33 32 31 30 30 30 31 30 31 31 31 30 29 27 26 24 23 23 23
47 47 48 47 46 44 43 42 40 37 36 35 35 34 34 34 35 36 38 38 39 38 38 36 35 34 33 32 32 32 32 32 32 32 32 32 31 30 29 27 25 25 24
47 48 47 46 46 44 43 42 39 38 36 36 36 35 35 34 35 35 37 39 39 40 39 37 36 35 35 34 34 34 33 34 33 33 33 33 33 33 31 30 28 27 26
46 46 45 45 46 43 41 39 37 37 36 35 35 35 35 35 35 35 36 37 38 39 39 38 37 36 35 35 35 35 35 35 35 35 35 35 35 35 34 32 31 29 28
47 46 44 45 42 40 38 37 35 34 33 33 34 34 35 35 36 36 35 35 36 37 37 37 36 35 34 34 35 34 35 36 36 37 37 36 37 37 36 35 33 31 30
47 47 46 42 37 36 35 33 32 32 32 32 33 34 35 35 36 36 35 34 34 35 35 36 35 34 34 34 34 35 36 36 37 38 39 39 38 38 38 38 36 34 32
45 44 42 38 36 35 33 32 31 31 32 33 34 35 35 36 35 35 34 32 32 32 33 33 33 33 33 34 35 36 37 37 37 38 39 40 40 40 40 40 39 36 34
45 43 41 39 36 34 32 32 32 32 33 34 34 35 35 35 34 33 32 31 30 30 30 31 31 32 33 34 35 36 37 38 38 39 39 40 40 41 41 41 40 39 35
47 44 41 38 36 35 34 34 33 33 34 34 34 34 34 33 32 32 32 31 30 29 29 30 30 30 31 32 34 34 35 37 39 40 40 40 41 40 40 39 39 39 37
47 44 42 39 39 37 35 35 34 34 34 34 33 33 33 32 32 32 32 32 31 30 30 30 31 31 31 31 32 33 34 34 36 38 39 39 39 40 39 37 37 38 37
44 42 40 40 38 37 36 36 35 35 34 33 33 33 32 33 33 33 33 33 33 33 33 32 33 32 32 32 31 31 32 33 34 36 38 38 37 37 37 36 35 36 34
40 40 40 39 37 36 36 35 34 34 33 32 32 32 32 33 33 34 34 35 35 35 35 35 35 35 34 33 32 30 29 29 31 33 34 35 34 34 34 34 33 32 32
35 34 36 37 37 36 35 34 33 32 32 31 31 31 32 33 33 34 35 36 36 36 36 36 36 37 36 35 33 31 30 29 28 28 28 29 30 30 30 30 30 30 31
30 30 32 32 33 33 32 31 31 30 30 30 30 31 32 33 34 34 35 36 37 37 38 38 38 38 37 36 35 33 32 30 29 27 26 26 27 28 27 28 29 29 30
26 27 28 27 27 27 27 27 27 27 28 28 29 30 31 32 33 34 35 36 36 37 37 37 38 38 38 37 36 35 34 33 31 29 27 26 26 26 26 26 27 29 29
21 22 23 23 22 22 23 23 23 24 25 27 27 28 29 30 31 32 33 34 35 36 37 37 38 38 38 38 38 37 36 35 34 33 30 28 26 26 26 25 26 28 29
15 15 16 17 18 19 19 20 21 22 23 24 25 26 26 27 28 29 31 32 33 34 34 36 37 38 38 38 38 37 37 37 36 35 33 31 29 27 26 25 25 28 28
14 14 14 15 16 16 17 18 19 19 20 20 21 21 22 23 25 27 28 29 31 32 33 34 35 36 36 37 37 37 37 37 36 36 35 33 32 31 29 28 27 27 30
13 13 13 13 14 14 15 16 16 16 17 18 18 19 21 23 25 26 27 28 29 30 31 33 34 34 35 35 35 35 36 36 36 36 36 34 33 32 32 31 30 29 30
11 11 11 12 12 13 13 13 14 14 15 15 17 18 20 21 23 24 26 28 29 30 31 31 32 32 33 33 33 33 33 34 34 34 35 35 34 34 33 33 33 33 31

GEFSMA_500_meanwind_042.txt.gz
Wind_Speed
26 26 26 26 27 27 27 27 27 27 27 27 27 27 27 26 24 22 20 19 18 18 17 17 17 16 16 16 17 17 17 17 17 17 16 16 16 16 16 15 15 15 15
31 31 31 31 32 32 32 32 31 31 31 31 31 32 32 31 29 27 25 23 22 21 20 19 19 19 18 18 18 18 18 19 19 19 19 18 18 18 18 17 16 16 16
35 35 35 36 36 36 36 36 36 35 35 35 35 35 36 35 33 32 30 27 25 24 23 22 21 21 21 20 20 20 20 20 21 21 21 21 20 20 20 19 19 18 17
38 38 39 39 40 40 40 40 40 39 39 39 38 38 38 38 37 36 35 32 30 28 26 25 24 24 23 23 23 23 22 22 22 23 23 23 23 22 22 22 21 21 20
40 41 42 42 42 43 44 44 43 42 41 41 42 41 40 40 40 39 38 36 34 31 29 27 26 25 25 25 25 25 25 24 24 24 25 25 25 25 25 25 24 23 23
42 43 44 44 45 45 46 46 45 45 43 43 43 43 41 41 41 40 39 38 36 34 32 30 28 27 27 27 27 26 26 26 26 26 26 26 27 27 28 28 27 27 26
45 46 45 46 47 47 47 46 45 44 44 44 44 43 42 41 40 39 37 37 37 36 34 32 31 29 28 27 28 28 27 27 28 28 28 29 29 29 29 30 30 30 29
47 47 46 47 47 46 45 44 44 42 42 41 41 41 40 38 37 36 35 35 34 34 33 33 31 31 30 28 28 28 28 28 28 29 30 30 31 30 30 31 32 31 31
48 48 48 47 48 47 46 45 43 41 41 40 39 38 37 37 36 33 32 32 33 32 33 32 31 30 29 28 27 27 27 28 29 30 30 31 32 32 32 32 32 33 33
49 49 50 49 48 47 47 45 43 42 40 39 38 37 36 34 33 31 31 31 31 31 31 30 30 29 28 28 27 26 26 27 28 29 30 31 32 33 34 34 34 35 35
51 51 50 50 49 48 47 45 43 42 40 38 36 36 35 33 31 29 28 29 30 30 29 29 29 29 28 27 26 25 25 26 27 28 29 31 33 34 35 36 36 36 36
52 51 51 51 50 49 47 45 43 42 40 38 36 35 34 33 30 29 29 29 29 30 29 29 28 28 27 26 26 25 25 26 26 27 29 31 32 34 35 37 38 39 38
52 52 52 52 51 50 47 45 43 42 40 37 36 35 32 31 30 29 29 28 28 29 29 28 27 26 26 26 26 25 26 26 27 28 29 30 32 34 35 37 38 39 39
53 53 54 53 52 50 47 44 43 42 40 38 35 33 32 31 30 29 28 27 27 28 28 27 26 26 26 26 25 26 26 27 28 28 29 30 31 33 34 36 38 39 39
54 54 53 52 50 48 47 44 42 41 39 37 36 34 33 31 30 29 28 28 28 27 28 28 27 26 26 27 27 27 28 28 29 30 30 30 31 32 33 35 36 38 39
51 51 51 49 48 47 46 44 42 40 38 37 36 35 33 32 30 29 28 28 28 28 28 28 28 28 28 29 29 30 31 31 31 31 31 31 31 32 33 35 36 38 39
46 47 46 45 44 43 43 42 42 41 39 37 35 33 33 31 29 28 27 27 28 28 28 29 30 29 30 31 31 32 32 33 33 33 33 33 33 33 33 34 36 37 37
39 38 37 37 38 37 38 37 36 36 36 35 33 32 31 29 29 27 27 26 27 28 28 29 30 31 32 33 33 34 34 35 35 35 35 35 35 34 34 34 35 35 37
31 31 33 33 33 34 34 33 32 33 34 33 31 30 29 27 26 26 26 26 26 27 28 29 30 31 32 33 34 35 36 36 37 36 36 36 36 35 35 35 34 35 35
28 26 26 28 28 29 31 32 31 31 31 30 29 28 26 24 24 25 25 25 26 26 27 29 30 31 32 34 35 36 37 38 38 38 38 37 37 36 36 35 34 34 33
23 20 21 22 23 24 27 28 27 28 28 26 25 23 22 22 23 23 23 23 24 25 26 28 29 31 32 34 35 36 38 39 39 39 39 38 37 37 36 35 35 34 33
19 18 17 17 18 20 22 24 25 24 24 23 21 19 19 20 21 22 21 21 22 23 24 26 28 30 32 34 35 37 38 38 39 40 40 40 39 38 36 35 35 34 33
17 15 14 14 14 15 17 19 19 20 19 18 18 17 17 18 18 18 18 19 20 22 24 26 28 30 32 34 35 37 38 38 38 38 39 39 38 37 37 36 34 34 34
14 13 12 11 11 12 13 15 16 16 17 17 17 16 15 15 15 15 16 17 19 20 22 25 27 29 31 33 34 35 36 36 37 37 37 37 37 36 35 35 34 33 33
12 12 11 11 11 11 12 12 13 13 13 13 12 12 12 13 13 13 14 16 18 20 22 24 27 29 31 33 34 35 35 35 35 35 35 35 35 35 34 34 33 33 32
12 12 11 10 10 10 10 10 10 10 10 10 10 10 10 10 11 12 14 15 17 20 22 25 27 29 31 31 32 32 33 32 32 32 32 32 32 32 32 32 32 32 31

GEFSMA_500_meanwind_048.txt.gz
Wind_Speed
24 24 24 25 25 26 26 26 26 27 26 27 28 28 28 28 28 28 28 27 27 26 25 23 22 21 20 19 18 17 17 16 17 17 18 18 17 17 16 16 15 14 14
29 29 28 28 29 29 29 29 29 29 28 29 30 30 31 31 31 30 31 31 30 29 28 27 26 25 23 22 21 20 20 19 18 18 19 20 20 19 19 18 18 17 16
32 32 32 31 31 31 31 31 31 31 31 31 32 32 32 32 33 33 33 33 32 32 32 31 29 28 27 25 24 23 22 22 21 20 20 21 21 22 21 21 20 20 19
33 34 34 34 33 33 32 32 33 33 33 33 33 34 33 33 33 34 35 35 35 33 33 33 33 31 30 28 26 25 24 24 24 23 22 22 22 23 23 23 23 22 21
35 36 36 35 36 35 35 35 35 35 34 35 35 35 34 33 33 34 34 34 35 34 33 33 33 33 32 31 29 27 26 26 26 25 25 24 24 24 24 25 25 24 24
38 38 37 37 37 37 37 37 36 37 36 36 36 36 36 35 34 34 33 33 34 33 33 32 32 32 32 31 29 29 28 28 27 27 27 26 26 26 25 25 26 26 26
39 39 39 39 39 38 38 37 38 39 38 38 37 36 36 35 34 33 33 33 32 31 32 32 32 32 31 31 30 29 29 29 29 28 28 28 28 27 27 27 27 27 27
41 41 40 40 41 41 40 40 41 40 38 38 38 37 36 34 34 34 33 32 31 31 31 31 31 32 32 30 29 29 29 29 28 28 28 28 28 28 28 28 28 28 28
42 42 41 41 42 43 42 41 42 41 40 39 39 39 37 35 34 33 33 32 31 29 29 30 30 30 30 30 29 29 28 28 27 27 27 28 28 28 29 29 28 28 28
41 41 41 41 42 42 42 42 42 42 42 40 40 40 39 37 35 33 33 31 30 28 27 28 30 30 29 28 27 27 27 27 27 26 26 27 27 27 28 28 28 28 28
39 40 40 40 41 42 42 43 43 43 43 42 41 41 39 38 36 35 33 31 29 28 27 26 27 27 27 26 27 26 26 26 26 25 25 26 26 26 26 27 28 28 29
40 40 41 42 42 43 44 44 45 44 44 43 42 42 41 39 37 36 33 31 30 29 27 26 26 25 26 25 25 25 25 25 25 25 25 25 25 25 25 26 26 27 28
40 41 42 42 43 43 43 44 45 45 45 45 43 43 42 40 38 36 34 32 31 30 28 26 25 25 25 25 25 25 25 25 25 25 25 25 25 25 25 26 26 27 28
41 41 41 42 42 43 44 45 45 45 46 45 44 43 41 38 37 35 33 32 32 30 28 27 26 25 25 24 24 24 25 25 25 25 25 25 25 25 25 26 26 27 28
42 42 42 42 43 44 45 45 46 46 45 45 44 42 40 38 36 35 33 31 30 29 28 26 26 25 25 24 24 25 25 25 25 25 26 26 26 26 26 26 27 28 29
43 42 42 43 43 44 44 44 43 43 43 42 42 41 39 38 35 34 33 31 30 30 29 27 27 26 24 24 25 25 26 26 26 27 27 28 28 29 28 28 29 30 30
42 42 42 42 42 40 39 38 38 38 37 38 36 36 37 36 34 32 31 30 30 29 28 28 27 26 25 25 25 26 27 27 28 29 29 30 30 31 31 32 32 33 33
40 39 39 39 38 37 36 35 35 34 33 32 32 33 33 33 32 32 31 30 28 27 27 27 26 26 25 25 25 26 26 27 28 30 30 31 32 33 34 35 35 36 37
36 36 36 35 34 33 32 32 30 29 27 26 26 27 29 30 29 29 27 27 26 26 25 24 23 23 24 24 24 25 26 27 28 29 31 32 33 35 36 37 38 39 40
32 32 31 30 29 27 27 25 24 25 25 23 23 24 26 27 27 27 26 25 24 24 22 21 21 22 22 23 24 25 26 27 28 30 31 32 34 35 37 38 39 40 41
29 28 26 25 24 24 22 22 22 22 22 22 22 22 23 24 25 25 24 22 21 20 19 19 20 20 21 22 22 23 25 26 28 29 31 33 34 36 38 39 40 41 42
26 24 22 21 21 21 20 19 18 19 20 21 21 21 23 22 22 22 20 18 18 17 17 18 18 18 19 19 21 22 24 25 27 29 32 34 35 37 39 40 41 42 43
23 22 20 18 18 16 15 16 16 15 17 19 20 20 20 19 18 17 16 15 15 15 15 16 16 17 18 19 20 21 23 25 27 29 32 34 36 38 39 40 41 42 43
22 20 18 16 15 14 13 13 13 12 12 13 15 16 16 17 16 15 14 14 14 14 14 14 15 16 17 18 19 21 23 25 27 30 32 34 36 38 39 40 40 40 41
20 18 16 15 14 13 12 12 11 11 11 11 12 13 14 14 14 13 13 12 12 12 12 13 13 14 15 17 19 21 23 26 28 30 32 33 34 35 36 36 36 37 38
19 17 15 14 13 11 11 11 11 11 10 10 11 12 12 12 12 11 11 11 11 11 11 12 12 14 15 17 19 21 24 26 28 30 32 33 33 33 33 34 33 33 33